This is the latest recevied weather packets stored in our database for station/object KC4GS-13. If no packets are shown the sender has not sent any weather packets the latest 10 day(s).
| Time | Temp. | Humidity | Pressure | Rain* | Wind** | Luminosity | Snow |
|---|---|---|---|---|---|---|---|
| 1788611243 | 23.33° C | 97% | 1016.2 hPa | 0 mm | - | 54 W/m² | - |
| 1788610937 | 23.33° C | 97% | 1016.4 hPa | 0 mm | - | 44 W/m² | - |
| 1788610632 | 23.33° C | 97% | 1016.4 hPa | 0 mm | - | 54 W/m² | - |
| 1788610329 | 23.33° C | 97% | 1016.3 hPa | 0 mm | - | 42 W/m² | - |
| 1788610027 | 23.33° C | 97% | 1016.2 hPa | 0 mm | - | 35 W/m² | - |
| 1788609722 | 23.33° C | 97% | 1016.1 hPa | 0 mm | - | 24 W/m² | - |
| 1788609416 | 22.78° C | 97% | 1016.1 hPa | 0 mm | - | 23 W/m² | - |
| 1788609111 | 22.78° C | 97% | 1016.3 hPa | 0 mm | - | 20 W/m² | - |
| 1788608811 | 22.78° C | 97% | 1015.9 hPa | 0 mm | - | 17 W/m² | - |
| 1788608509 | 22.78° C | 97% | 1015.9 hPa | 0 mm | - | 16 W/m² | - |
| 1788608204 | 22.78° C | 97% | 1015.9 hPa | 0 mm | - | 13 W/m² | - |
| 1788607899 | 22.78° C | 97% | 1015.6 hPa | 0 mm | - | 11 W/m² | - |
| 1788607593 | 22.78° C | 97% | 1015.9 hPa | 0 mm | - | 9 W/m² | - |
| 1788607290 | 22.78° C | 97% | 1015.5 hPa | 0 mm | - | 6 W/m² | - |
| 1788606984 | 22.78° C | 97% | 1015.6 hPa | 0 mm | - | 4 W/m² | - |
| 1788606683 | 22.78° C | 97% | 1015.6 hPa | 0 mm | - | 2 W/m² | - |
| 1788606382 | 22.78° C | 97% | 1015.7 hPa | 0 mm | - | 0 W/m² | - |
| 1788606080 | 22.78° C | 97% | 1015.8 hPa | 0 mm | - | 0 W/m² | - |
| 1788605778 | 22.78° C | 97% | 1015.6 hPa | 0 mm | - | 0 W/m² | - |
| 1788605477 | 22.78° C | 97% | 1015.6 hPa | 0 mm | - | 0 W/m² | - |
| 1788605172 | 22.78° C | 97% | 1015.5 hPa | 0 mm | - | 0 W/m² | - |
| 1788604867 | 22.78° C | 97% | 1015.4 hPa | 0 mm | - | 0 W/m² | - |
| 1788604563 | 22.78° C | 97% | 1015.6 hPa | 0 mm | - | 0 W/m² | - |
| 1788604258 | 22.78° C | 96% | 1015.3 hPa | 0 mm | - | 0 W/m² | - |
| 1788603948 | 22.78° C | 96% | 1015.3 hPa | 0 mm | - | 0 W/m² | - |
* Rain latest hour (hover to see other rain measurements)
** Current wind speed in m/s (hover to see current wind gust speed)